Flag for U.S.A. Weather past 2 weeks in Modesto, California, U.S.A.

Now
60 °F

Clear.


Feels Like: 60 °F
Forecast: 56 / 86 °F
Wind: No wind

Location: Modesto City-County-Sham Field

Current Time: Apr 19, 2015 at 5:06:34 AM

Latest Report: Apr 19, 2015 at 3:53 AM


Visibility: 10 mi

Pressure: 29.89 "Hg

Humidity: 67%

Dew point: 49 °F

Location of ModestoLocation

Historic Weather in Modesto — Graph

°F

Modesto temperature yesterday

Maximum temperature yesterday: 86 °F (at 3:53 PM)
Minimum temperature yesterday: 52 °F (at 2:53 AM)
Average temperature yesterday: 69 °F

Past Weeks' High & Low Weather Summary

 TemperatureHumidityPressure
High86 °F (Apr 18, 3:53 PM)89% (Apr 13, 5:53 AM)30.31 "Hg (Apr 13, 5:53 AM)
Low41 °F (Apr 6, 6:53 AM)10% (Apr 14, 3:53 PM)29.82 "Hg (Apr 7, 4:53 AM)
Average61 °F47%30.00 "Hg
* Reported Apr 4 3:53 AM — Apr 19 3:53 AM, Modesto, Weather by CustomWeather, © 2015

Note: Actual official high and low records may vary slightly from our data, if they occured in-between our weather recording intervals... More about our weather records

Advertising

Modesto weather history for previous 24 hours

 ConditionsComfort  
Time TempWeatherWind HumidityBarometerVisibility
3:53 AM
Sun, Apr 19
60 °FClear.No wind67%29.89 "Hg10 mi
2:53 AM61 °FClear.No wind65%29.88 "Hg10 mi
1:53 AM64 °FClear.No wind56%29.88 "Hg10 mi
12:53 AM65 °FClear.3 mph51%29.88 "Hg10 mi
11:53 PM
Sat, Apr 18
66 °FClear.3 mph49%29.88 "Hg10 mi
10:53 PM68 °FClear.3 mph44%29.87 "Hg10 mi
9:53 PM70 °FClear.7 mph42%29.88 "Hg10 mi
8:53 PM73 °FClear.8 mph37%29.87 "Hg10 mi
7:53 PM78 °FSunny.7 mph24%29.86 "Hg10 mi
6:53 PM83 °FSunny.6 mph18%29.86 "Hg10 mi
5:53 PM85 °FSunny.6 mph16%29.86 "Hg10 mi
4:53 PM86 °FSunny.9 mph17%29.87 "Hg10 mi
3:53 PM86 °FSunny.8 mph17%29.89 "Hg10 mi
2:53 PM85 °FSunny.6 mph15%29.91 "Hg10 mi
1:53 PM83 °FSunny.No wind18%29.94 "Hg10 mi
12:53 PM80 °FSunny.3 mph20%29.96 "Hg10 mi
11:53 AM78 °FSunny.6 mph23%29.99 "Hg10 mi
10:53 AM73 °FSunny.3 mph32%30.01 "Hg10 mi
9:53 AM68 °FSunny.No wind36%30.01 "Hg10 mi
8:53 AM64 °FSunny.6 mph43%30.01 "Hg10 mi
7:53 AM59 °FSunny.6 mph51%30.02 "Hg10 mi
6:53 AM53 °FClear.No wind69%30.01 "Hg10 mi
5:53 AM52 °FClear.No wind72%30.00 "Hg10 mi
Weather by CustomWeather, © 2015

See weather overviewHow to use our weather pages